This is the latest recevied weather packets stored in our database for station/object GOLDWX. If no packets are shown the sender has not sent any weather packets the latest 10 day(s).
| Time | Temp. | Humidity | Pressure | Rain* | Wind** | Luminosity | Snow |
|---|---|---|---|---|---|---|---|
| 1777857754 | 19.44° C | 18% | 1008.5 hPa | 0 mm | - | - | - |
| 1777857152 | 20° C | 17% | 1008.3 hPa | 0 mm | - | - | - |
| 1777856851 | 20.56° C | 18% | 1008.4 hPa | 0 mm | - | - | - |
| 1777856249 | 20° C | 18% | 1008.3 hPa | 0 mm | - | - | - |
| 1777855948 | 20° C | 17% | 1008.3 hPa | 0 mm | - | - | - |
| 1777855346 | 20.56° C | 17% | 1008.4 hPa | 0 mm | - | - | - |
| 1777855046 | 20.56° C | 16% | 1008.3 hPa | 0 mm | - | - | - |
| 1777854444 | 21.11° C | 16% | 1008.3 hPa | 0 mm | - | - | - |
| 1777854143 | 21.11° C | 16% | 1008.3 hPa | 0 mm | - | - | - |
| 1777853541 | 21.11° C | 17% | 1008.4 hPa | 0 mm | - | - | - |
| 1777853241 | 21.11° C | 18% | 1008.4 hPa | 0 mm | - | - | - |
| 1777852639 | 20.56° C | 18% | 1008.7 hPa | 0 mm | - | - | - |
| 1777852338 | 20.56° C | 17% | 1008.5 hPa | 0 mm | - | - | - |
| 1777851736 | 20.56° C | 17% | 1008.8 hPa | 0 mm | - | - | - |
| 1777851436 | 20.56° C | 16% | 1008.7 hPa | 0 mm | - | - | - |
| 1777850835 | 21.67° C | 14% | 1008.8 hPa | 0 mm | - | - | - |
| 1777850533 | 21.67° C | 14% | 1008.9 hPa | 0 mm | - | - | - |
| 1777849631 | 21.67° C | 15% | 1008.9 hPa | 0 mm | - | - | - |
| 1777849029 | 21.11° C | 16% | 1009.1 hPa | 0 mm | - | - | - |
| 1777848728 | 21.11° C | 16% | 1009.1 hPa | 0 mm | - | - | - |
| 1777848127 | 21.11° C | 16% | 1009.3 hPa | 0 mm | - | - | - |
| 1777847826 | 21.11° C | 16% | 1009.3 hPa | 0 mm | - | - | - |
| 1777847224 | 21.11° C | 16% | 1009.4 hPa | 0 mm | - | - | - |
| 1777846923 | 21.67° C | 15% | 1009.5 hPa | 0 mm | - | - | - |
| 1777846321 | 21.11° C | 16% | 1009.6 hPa | 0 mm | - | - | - |
* Rain since midnight (hover to see other rain measurements)
** Current wind speed in m/s (hover to see current wind gust speed)